User: anonymous   Login
Location: Unspecified
(0.0000°N, 0.0000°E)
Time: 16:58:10
(UTC+00:00)
Language:

Tiungsat 1 - Orbit

View from above orbital plane
View from above orbital plane
View from above satellite
View from above satellite

Ground track
Ground track

The orbit data is extracted from the following two-line orbital elements,

1 26548U 00057D   17264.87189669 +.00000102 +00000-0 +27257-4 0  9991
2 26548 064.5512 058.6724 0024102 215.1313 144.8208 14.89058740920292
Epoch (UTC): 21 September 2017 20:55:31
Eccentricity: 0.0024102
inclination: 64.5512°
perigee height: 584 km
apogee height: 618 km
right ascension of ascending node: 58.6724°
argument of perigee: 215.1313°
revolutions per day: 14.89058740
mean anomaly at epoch: 144.8208°
orbit number at epoch: 92029

The dashed part of the orbit path shows where the satellite is in the earth's shadow,  

DLR